Regional Weather Roundup
Issued by NWS

Home | Current Version | Previous Version | Text Only | Print | Product List | Glossary Off
Versions: 1 2 3 4 5 6 7 8 9 10 11 12 13 14 15 16 17 18 19 20 21 22 23 24 25 26 27 28 29 30 31 32 33 34 35 36 37 38 39 40 41 42 43 44 45 46 47 48 49 50

000
ASUS43 KLMK 211602
RWRKY
KENTUCKY REGIONAL WEATHER ROUNDUP
NATIONAL WEATHER SERVICE LOUISVILLE KY
1200 PM EDT THU SEP 21 2017

NOTE "FAIR" INDICATES FEW OR NO CLOUDS BELOW 12,000 FEET
WITH NO SIGNIFICANT WEATHER AND/OR OBSTRUCTIONS TO VISIBILITY.

KYZ001>023-026-027-061>063-070>075-211700-
WESTERN AND SOUTH CENTRAL KENTUCKY

CITY           SKY/WX    TMP DP  RH WIND       PRES   REMARKS
PADUCAH        SUNNY     87  70  56 W6        30.07S HX  92
HENDERSON      SUNNY     87  73  62 VRB5      30.09S HX  94
OWENSBORO      MOSUNNY   87  74  64 SE6       30.09F HX  95
HOPKINSVILLE   MOSUNNY   85  73  66 N5        30.09S HX  91
BOWLING GREEN  SUNNY     85  74  69 E3        30.11S HX  92
GLASGOW        SUNNY     85  69  58 N3        30.12S
$$

KYZ024-025-028>034-038-045-046-053-211700-
NORTH CENTRAL KENTUCKY

CITY           SKY/WX    TMP DP  RH WIND       PRES   REMARKS
LOUISVILLE/SDF MOSUNNY   87  72  60 CALM      30.10F HX  93
LOUISVILLE/LOU SUNNY     85  73  67 CALM      30.11S HX  91
FORT KNOX      MOSUNNY   84  72  66 SE3       30.10F HX  90
$$

KYZ035>037-039>044-047>052-055>060-089>105-211700-
NORTHEAST KENTUCKY

CITY           SKY/WX    TMP DP  RH WIND       PRES   REMARKS
LEXINGTON      SUNNY     84  70  62 CALM      30.14S
COVINGTON      MOSUNNY   84  73  69 W5        30.12S HX  90
FRANKFORT      SUNNY     85  69  58 CALM      30.12S
$$

KYZ054-064>069-076>088-106>120-211700-
SOUTHEAST KENTUCKY

CITY           SKY/WX    TMP DP  RH WIND       PRES   REMARKS
JACKSON        SUNNY     79  67  66 CALM      30.15F
LONDON         SUNNY     81  67  62 E5        30.14F
SOMERSET       SUNNY     81  66  61 CALM      30.14F
MIDDLESBORO    SUNNY     74  67  77 CALM      30.15F
MONTICELLO     SUNNY     83  69  62 NW6       30.15S
$$





USA.gov is the U.S. government's official web portal to all federal, state and local government web resources and services.